Find Starlink 36891

NORAD ID: 68024 Int'l Des: 2026-040 Owner: SPXS Country: US Constellation: starlink operational
LEOCIRCULARRETROGRADE

Live-Position

3D-Globus wird geladen...

Über Starlink 36891

Beschreibung wird geladen...

Nächste Überflüge

Passes for default location (London). Set your location on the main map for personalized predictions.

Höhenverlauf

Loading altitude history...

Zweizeiliger Elementsatz

1 68024U 26040K 26132.12328973 .00009662 00000-0 30117-3 0 9999
2 68024 97.2850 81.3091 0001640 95.9694 264.1735 15.33451206 11187
Epoch: 12. Mai 2026 • Age: 13 hours

Aktueller Status

Höhe 470.9 km
Geschwindigkeit 7.63 km/s
Subsatellitenpunkt -11.29°S, 145.17°E
Startdatum 1. März 2026
Alter 0.1 years
Typ internet

Technische Details

Klassifizierung Payload
Masse 575.00 kg
Trockenmasse 530.00 kg
Gesamtmasse 575.00 kg
Länge 0.30 m
Durchmesser 4.10 m
Spannweite 29.00 m
Form Box + pan
Hersteller SPXS
Bus-Typ Starlink V2MO
Phasenstatus In Orbit
Besitzer/Staat SPXS/US

Most Searched